"datetime","temp","dp","rain_mm","uv","solar","mb","wind_mph","gust_mph","windchill","rh"
"2024-04-03 00:00:00",10.0,9.4,0.0,0.0,0,999.1,2,5,9.0,96
"2024-04-03 00:01:00",10.0,9.4,0.0,0.0,0,999.1,1,2,"",96
"2024-04-03 00:02:00",10.0,9.4,0.0,0.0,0,999.1,1,3,"",96
"2024-04-03 00:03:00",10.0,9.4,0.0,0.0,0,999.1,3,5,9.0,96
"2024-04-03 00:04:00",10.0,9.4,0.0,0.0,0,999.1,2,4,9.4,96
"2024-04-03 00:05:00",10.0,9.4,0.0,0.0,0,999.0,3,5,9.0,96
"2024-04-03 00:06:00",10.0,9.4,0.0,0.0,0,999.1,4,6,8.7,96
"2024-04-03 00:07:00",10.0,9.4,0.2,0.0,0,999.1,3,6,8.7,96
"2024-04-03 00:08:00",10.1,9.5,0.2,0.0,0,999.1,1,2,"",96
"2024-04-03 00:09:00",10.0,9.4,0.2,0.0,0,999.1,2,3,"",96
"2024-04-03 00:10:00",10.0,9.4,0.2,0.0,0,999.1,2,2,"",96
"2024-04-03 00:11:00",10.1,9.5,0.2,0.0,0,999.1,2,4,9.4,96
"2024-04-03 00:12:00",10.1,9.5,0.2,0.0,0,999.1,3,5,"",96
"2024-04-03 00:13:00",10.0,9.4,0.2,0.0,0,999.0,4,5,9.0,96
"2024-04-03 00:14:00",10.1,9.5,0.2,0.0,0,999.1,4,6,9.0,96
"2024-04-03 00:15:00",10.1,9.5,0.2,0.0,0,999.0,3,5,9.4,96
"2024-04-03 00:16:00",10.1,9.5,0.2,0.0,0,999.1,2,4,"",96
"2024-04-03 00:17:00",10.1,9.5,0.2,0.0,0,999.1,3,4,"",96
"2024-04-03 00:18:00",10.1,9.5,0.2,0.0,0,999.1,3,5,"",96
"2024-04-03 00:19:00",10.1,9.5,0.4,0.0,0,999.1,2,4,"",96
"2024-04-03 00:20:00",10.1,9.5,0.4,0.0,0,999.0,3,5,"",96
"2024-04-03 00:21:00",10.1,9.5,0.4,0.0,0,999.1,2,5,"",96
"2024-04-03 00:22:00",10.1,9.5,0.4,0.0,0,999.0,2,4,"",96
"2024-04-03 00:23:00",10.1,9.5,0.4,0.0,0,999.0,1,3,"",96
"2024-04-03 00:24:00",10.1,9.5,0.4,0.0,0,999.0,1,2,"",96
"2024-04-03 00:25:00",10.1,9.5,0.4,0.0,0,999.0,4,8,"",96
"2024-04-03 00:26:00",10.1,9.5,0.6,0.0,0,999.0,2,4,"",96
"2024-04-03 00:27:00",10.1,9.5,0.6,0.0,0,999.0,5,10,"",96
"2024-04-03 00:28:00",10.1,9.5,0.6,0.0,0,999.0,3,6,"",96
"2024-04-03 00:29:00",10.1,9.5,0.6,0.0,0,999.0,2,4,"",96
"2024-04-03 00:30:00",10.1,9.5,0.6,0.0,0,999.0,1,4,"",96
"2024-04-03 00:31:00",10.1,9.5,0.6,0.0,0,999.0,1,3,"",96
"2024-04-03 00:32:00",10.1,9.5,0.6,0.0,0,999.0,2,3,"",96
"2024-04-03 00:33:00",10.1,9.5,0.8,0.0,0,999.0,1,2,"",96
"2024-04-03 00:34:00",10.1,9.5,0.8,0.0,0,999.0,2,3,"",96
"2024-04-03 00:35:00",10.1,9.5,0.8,0.0,0,998.9,2,4,"",96
"2024-04-03 00:36:00",10.1,9.5,0.8,0.0,0,998.9,3,5,"",96
"2024-04-03 00:37:00",10.1,9.5,0.8,0.0,0,998.9,2,3,"",96
"2024-04-03 00:38:00",10.1,9.5,0.8,0.0,0,998.9,1,3,"",96
"2024-04-03 00:39:00",10.1,9.5,0.8,0.0,0,998.9,2,4,"",96
"2024-04-03 00:40:00",10.1,9.5,0.8,0.0,0,998.9,2,4,"",96
"2024-04-03 00:41:00",10.1,9.5,0.8,0.0,0,998.8,2,4,"",96
"2024-04-03 00:42:00",10.2,9.6,0.8,0.0,0,998.9,3,5,"",96
"2024-04-03 00:43:00",10.2,9.6,0.8,0.0,0,998.9,1,2,"",96
"2024-04-03 00:44:00",10.2,9.6,0.8,0.0,0,998.9,1,2,"",96
"2024-04-03 00:45:00",10.2,9.6,1.0,0.0,0,998.9,2,5,"",96
"2024-04-03 00:46:00",10.2,9.6,1.0,0.0,0,998.9,3,6,"",96
"2024-04-03 00:47:00",10.2,9.6,1.0,0.0,0,998.9,2,4,"",96
"2024-04-03 00:48:00",10.2,9.6,1.0,0.0,0,998.9,2,4,"",96
"2024-04-03 00:49:00",10.2,9.6,1.0,0.0,0,998.9,1,3,"",96
"2024-04-03 00:50:00",10.2,9.6,1.0,0.0,0,998.8,2,3,"",96
"2024-04-03 00:51:00",10.2,9.6,1.0,0.0,0,998.8,3,6,"",96
"2024-04-03 00:52:00",10.2,9.6,1.0,0.0,0,998.8,3,6,"",96
"2024-04-03 00:53:00",10.2,9.6,1.2,0.0,0,998.8,2,4,"",96
"2024-04-03 00:54:00",10.2,9.6,1.2,0.0,0,998.7,1,3,"",96
"2024-04-03 00:55:00",10.2,9.6,1.2,0.0,0,998.7,1,2,"",96
"2024-04-03 00:56:00",10.2,9.6,1.2,0.0,0,998.7,2,3,"",96
"2024-04-03 00:57:00",10.2,9.6,1.2,0.0,0,998.7,2,5,"",96
"2024-04-03 00:58:00",10.2,9.6,1.2,0.0,0,998.7,2,3,"",96
"2024-04-03 00:59:00",10.2,9.6,1.2,0.0,0,998.7,3,7,"",96
"2024-04-03 01:00:00",10.2,9.6,1.2,0.0,0,998.6,4,8,"",96
"2024-04-03 01:01:00",10.2,9.6,1.4,0.0,0,998.7,2,3,"",96
"2024-04-03 01:02:00",10.2,9.6,1.4,0.0,0,998.6,2,3,"",96
"2024-04-03 01:03:00",10.2,9.6,1.4,0.0,0,998.6,2,6,"",96
"2024-04-03 01:04:00",10.2,9.6,1.4,0.0,0,998.6,2,4,"",96
"2024-04-03 01:05:00",10.2,9.6,1.4,0.0,0,998.6,2,4,"",96
"2024-04-03 01:06:00",10.2,9.6,1.4,0.0,0,998.6,3,6,"",96
"2024-04-03 01:07:00",10.2,9.6,1.4,0.0,0,998.6,3,7,"",96
"2024-04-03 01:08:00",10.2,9.6,1.4,0.0,0,998.6,3,6,"",96
"2024-04-03 01:09:00",10.2,9.6,1.4,0.0,0,998.6,2,5,"",96
"2024-04-03 01:10:00",10.2,9.6,1.4,0.0,0,998.6,2,4,"",96
"2024-04-03 01:11:00",10.2,9.6,1.4,0.0,0,998.6,1,3,"",96
"2024-04-03 01:12:00",10.2,9.6,1.4,0.0,0,998.6,1,3,"",96
"2024-04-03 01:13:00",10.2,9.6,1.4,0.0,0,998.6,2,4,"",96
"2024-04-03 01:14:00",10.2,9.6,1.4,0.0,0,998.6,2,6,"",96
"2024-04-03 01:15:00",10.2,9.6,1.4,0.0,0,998.6,2,7,"",96
"2024-04-03 01:16:00",10.2,9.6,1.4,0.0,0,998.6,3,6,"",96
"2024-04-03 01:17:00",10.2,9.6,1.4,0.0,0,998.6,1,2,"",96
"2024-04-03 01:18:00",10.2,9.6,1.4,0.0,0,998.6,1,2,"",96
"2024-04-03 01:19:00",10.2,9.6,1.4,0.0,0,998.6,2,6,"",96
"2024-04-03 01:20:00",10.2,9.6,1.4,0.0,0,998.5,3,5,"",96
"2024-04-03 01:21:00",10.2,9.6,1.4,0.0,0,998.6,4,7,"",96
"2024-04-03 01:22:00",10.2,9.6,1.4,0.0,0,998.5,1,5,"",96
"2024-04-03 01:23:00",10.2,9.6,1.4,0.0,0,998.6,3,8,"",96
"2024-04-03 01:24:00",10.2,9.6,1.4,0.0,0,998.6,2,7,"",96
"2024-04-03 01:25:00",10.2,9.6,1.4,0.0,0,998.5,4,9,"",96
"2024-04-03 01:26:00",10.2,9.6,1.4,0.0,0,998.5,2,4,"",96
"2024-04-03 01:27:00",10.2,9.6,1.4,0.0,0,998.5,2,3,"",96
"2024-04-03 01:28:00",10.2,9.6,1.4,0.0,0,998.5,1,2,"",96
"2024-04-03 01:29:00",10.2,9.6,1.4,0.0,0,998.5,1,2,"",96
"2024-04-03 01:30:00",10.3,9.7,1.4,0.0,0,998.5,2,3,"",96
"2024-04-03 01:31:00",10.2,9.6,1.4,0.0,0,998.4,3,5,"",96
"2024-04-03 01:32:00",10.2,9.6,1.4,0.0,0,998.5,1,3,"",96
"2024-04-03 01:33:00",10.2,9.6,1.4,0.0,0,998.5,1,3,"",96
"2024-04-03 01:34:00",10.3,9.7,1.4,0.0,0,998.4,2,3,"",96
"2024-04-03 01:35:00",10.2,9.6,1.4,0.0,0,998.4,1,3,"",96
"2024-04-03 01:36:00",10.2,9.6,1.4,0.0,0,998.4,1,2,"",96
"2024-04-03 01:37:00",10.2,9.6,1.4,0.0,0,998.4,1,3,"",96
"2024-04-03 01:38:00",10.2,9.6,1.4,0.0,0,998.4,2,4,"",96
"2024-04-03 01:39:00",10.2,9.6,1.4,0.0,0,998.4,4,6,"",96
"2024-04-03 01:40:00",10.2,9.6,1.4,0.0,0,998.4,2,4,"",96
"2024-04-03 01:41:00",10.2,9.6,1.4,0.0,0,998.3,4,6,"",96
"2024-04-03 01:42:00",10.3,9.7,1.4,0.0,0,998.3,2,5,"",96
"2024-04-03 01:43:00",10.3,9.7,1.4,0.0,0,998.4,2,4,"",96
"2024-04-03 01:44:00",10.2,9.6,1.4,0.0,0,998.3,3,6,"",96
"2024-04-03 01:45:00",10.3,9.7,1.4,0.0,0,998.3,2,4,"",96
"2024-04-03 01:46:00",10.3,9.7,1.4,0.0,0,998.3,1,2,"",96
"2024-04-03 01:47:00",10.2,9.6,1.4,0.0,0,998.3,1,2,"",96
"2024-04-03 01:48:00",10.2,9.6,1.4,0.0,0,998.3,1,2,"",96
"2024-04-03 01:49:00",10.2,9.6,1.4,0.0,0,998.3,1,2,"",96
"2024-04-03 01:50:00",10.2,9.6,1.4,0.0,0,998.3,2,2,"",96
"2024-04-03 01:51:00",10.2,9.6,1.4,0.0,0,998.3,1,2,"",96
"2024-04-03 01:52:00",10.3,9.7,1.4,0.0,0,998.3,2,5,"",96
"2024-04-03 01:53:00",10.3,9.7,1.4,0.0,0,998.3,2,3,"",96
"2024-04-03 01:54:00",10.3,9.7,1.6,0.0,0,998.2,0,2,"",96
"2024-04-03 01:55:00",10.3,9.7,1.6,0.0,0,998.2,2,3,"",96
"2024-04-03 01:56:00",10.3,9.7,1.6,0.0,0,998.1,2,3,"",96
"2024-04-03 01:57:00",10.3,9.7,1.6,0.0,0,998.1,3,8,"",96
"2024-04-03 01:58:00",10.3,9.7,1.6,0.0,0,998.2,5,9,"",96
"2024-04-03 01:59:00",10.3,9.7,1.6,0.0,0,998.1,3,7,"",96
"2024-04-03 02:00:00",10.3,9.7,1.6,0.0,0,998.1,2,4,"",96
"2024-04-03 02:01:00",10.2,9.6,1.6,0.0,0,998.1,2,4,"",96
"2024-04-03 02:02:00",10.3,9.7,1.6,0.0,0,998.1,2,3,"",96
"2024-04-03 02:03:00",10.3,9.7,1.6,0.0,0,998.1,3,5,"",96
"2024-04-03 02:04:00",10.3,9.7,1.6,0.0,0,998.1,2,4,"",96
"2024-04-03 02:05:00",10.3,9.7,1.6,0.0,0,998.1,1,2,"",96
"2024-04-03 02:06:00",10.3,9.7,1.6,0.0,0,998.1,1,2,"",96
"2024-04-03 02:07:00",10.3,9.7,1.6,0.0,0,998.0,1,2,"",96
"2024-04-03 02:08:00",10.3,9.7,1.6,0.0,0,998.0,2,3,"",96
"2024-04-03 02:09:00",10.3,9.7,1.6,0.0,0,998.0,1,3,"",96
"2024-04-03 02:10:00",10.3,9.7,1.6,0.0,0,998.0,2,4,"",96
"2024-04-03 02:11:00",10.3,9.7,1.6,0.0,0,998.0,3,4,"",96
"2024-04-03 02:12:00",10.3,9.7,1.6,0.0,0,998.0,2,3,"",96
"2024-04-03 02:13:00",10.3,9.7,1.6,0.0,0,998.0,1,3,"",96
"2024-04-03 02:14:00",10.3,9.7,1.6,0.0,0,997.9,1,2,"",96
"2024-04-03 02:15:00",10.3,9.7,1.6,0.0,0,997.9,1,3,"",96
"2024-04-03 02:16:00",10.3,9.7,1.6,0.0,0,997.9,4,9,"",96
"2024-04-03 02:17:00",10.3,9.7,1.6,0.0,0,997.9,3,5,"",96
"2024-04-03 02:18:00",10.3,9.7,1.6,0.0,0,997.9,4,7,"",96
"2024-04-03 02:19:00",10.3,9.7,1.6,0.0,0,997.9,2,6,"",96
"2024-04-03 02:20:00",10.3,9.7,1.6,0.0,0,997.9,1,2,"",96
"2024-04-03 02:21:00",10.3,9.7,1.6,0.0,0,997.9,0,2,"",96
"2024-04-03 02:22:00",10.3,9.7,1.6,0.0,0,997.9,2,4,"",96
"2024-04-03 02:23:00",10.3,9.7,1.6,0.0,0,997.8,3,4,"",96
"2024-04-03 02:24:00",10.3,9.7,1.6,0.0,0,997.8,3,7,"",96
"2024-04-03 02:25:00",10.3,9.7,1.6,0.0,0,997.8,3,6,"",96
"2024-04-03 02:26:00",10.3,9.7,1.6,0.0,0,997.7,2,5,"",96
"2024-04-03 02:27:00",10.3,9.7,1.6,0.0,0,997.7,2,4,"",96
"2024-04-03 02:28:00",10.3,9.7,1.8,0.0,0,997.7,2,4,"",96
"2024-04-03 02:29:00",10.3,9.7,1.8,0.0,0,997.7,3,4,"",96
"2024-04-03 02:30:00",10.3,9.7,1.8,0.0,0,997.7,2,3,"",96
"2024-04-03 02:31:00",10.3,9.7,1.8,0.0,0,997.7,3,4,"",96
"2024-04-03 02:32:00",10.3,9.7,1.8,0.0,0,997.6,1,4,"",96
"2024-04-03 02:33:00",10.3,9.7,1.8,0.0,0,997.6,1,3,"",96
"2024-04-03 02:34:00",10.3,9.7,1.8,0.0,0,997.6,2,5,"",96
"2024-04-03 02:35:00",10.3,9.7,1.8,0.0,0,997.6,2,3,"",96
"2024-04-03 02:36:00",10.3,9.7,1.8,0.0,0,997.6,1,2,"",96
"2024-04-03 02:37:00",10.3,9.7,1.8,0.0,0,997.6,3,6,"",96
"2024-04-03 02:38:00",10.3,9.7,1.8,0.0,0,997.6,2,3,"",96
"2024-04-03 02:39:00",10.3,9.7,1.8,0.0,0,997.6,2,4,"",96
"2024-04-03 02:40:00",10.3,9.7,1.8,0.0,0,997.6,3,6,"",96
"2024-04-03 02:41:00",10.4,9.8,1.8,0.0,0,997.5,3,7,"",96
"2024-04-03 02:42:00",10.4,9.8,1.8,0.0,0,997.5,4,8,"",96
"2024-04-03 02:43:00",10.3,9.7,1.8,0.0,0,997.5,2,4,"",96
"2024-04-03 02:44:00",10.3,9.7,1.8,0.0,0,997.5,4,7,"",96
"2024-04-03 02:45:00",10.3,9.7,1.8,0.0,0,997.5,3,5,"",96
"2024-04-03 02:46:00",10.3,9.7,1.8,0.0,0,997.5,3,5,"",96
"2024-04-03 02:47:00",10.4,9.8,1.8,0.0,0,997.4,3,4,"",96
"2024-04-03 02:48:00",10.4,9.8,1.8,0.0,0,997.4,2,3,"",96
"2024-04-03 02:49:00",10.4,9.8,1.8,0.0,0,997.4,2,4,"",96
"2024-04-03 02:50:00",10.3,9.7,1.8,0.0,0,997.4,3,5,"",96
"2024-04-03 02:51:00",10.3,9.7,1.8,0.0,0,997.4,1,4,"",96
"2024-04-03 02:52:00",10.4,9.8,1.8,0.0,0,997.4,3,5,"",96
"2024-04-03 02:53:00",10.4,9.8,1.8,0.0,0,997.4,1,3,"",96
"2024-04-03 02:54:00",10.4,9.8,1.8,0.0,0,997.4,2,3,"",96
"2024-04-03 02:55:00",10.3,9.7,1.8,0.0,0,997.3,2,3,"",96
"2024-04-03 02:56:00",10.4,9.8,1.8,0.0,0,997.3,1,3,"",96
"2024-04-03 02:57:00",10.4,9.8,1.8,0.0,0,997.3,2,4,"",96
"2024-04-03 02:58:00",10.3,9.7,1.8,0.0,0,997.3,1,3,"",96
"2024-04-03 02:59:00",10.3,9.7,1.8,0.0,0,997.3,4,7,"",96
"2024-04-03 03:00:00",10.4,9.8,1.8,0.0,0,997.3,2,5,"",96
"2024-04-03 03:01:00",10.4,9.8,1.8,0.0,0,997.2,3,4,"",96
"2024-04-03 03:02:00",10.3,9.7,1.8,0.0,0,997.3,4,7,"",96
"2024-04-03 03:03:00",10.4,9.8,1.8,0.0,0,997.2,2,5,"",96
"2024-04-03 03:04:00",10.4,9.8,1.8,0.0,0,997.2,2,6,"",96
"2024-04-03 03:05:00",10.4,9.8,1.8,0.0,0,997.2,3,6,"",96
"2024-04-03 03:06:00",10.4,9.8,1.8,0.0,0,997.2,2,7,"",96
"2024-04-03 03:07:00",10.4,9.8,1.8,0.0,0,997.2,3,8,"",96
"2024-04-03 03:08:00",10.4,9.8,1.8,0.0,0,997.2,3,7,"",96
"2024-04-03 03:09:00",10.4,9.8,1.8,0.0,0,997.2,3,6,"",96
"2024-04-03 03:10:00",10.4,9.8,1.8,0.0,0,997.1,2,4,"",96
"2024-04-03 03:11:00",10.4,9.8,1.8,0.0,0,997.1,1,2,"",96
"2024-04-03 03:12:00",10.4,9.8,1.8,0.0,0,997.1,3,7,"",96
"2024-04-03 03:13:00",10.4,9.8,1.8,0.0,0,997.1,2,3,"",96
"2024-04-03 03:14:00",10.4,9.8,1.8,0.0,0,997.1,1,3,"",96
"2024-04-03 03:15:00",10.4,9.8,1.8,0.0,0,997.0,3,4,"",96
"2024-04-03 03:16:00",10.4,9.8,1.8,0.0,0,997.1,3,4,"",96
"2024-04-03 03:17:00",10.4,9.8,2.0,0.0,0,997.0,2,4,"",96
"2024-04-03 03:18:00",10.4,9.8,2.0,0.0,0,997.0,3,6,"",96
"2024-04-03 03:19:00",10.4,9.8,2.0,0.0,0,997.0,4,7,"",96
"2024-04-03 03:20:00",10.4,9.8,2.0,0.0,0,997.0,3,4,"",96
"2024-04-03 03:21:00",10.4,9.8,2.0,0.0,0,997.0,3,5,"",96
"2024-04-03 03:22:00",10.4,9.8,2.0,0.0,0,997.0,3,5,"",96
"2024-04-03 03:23:00",10.4,9.8,2.0,0.0,0,997.0,1,3,"",96
"2024-04-03 03:24:00",10.4,9.8,2.0,0.0,0,997.0,2,5,"",96
"2024-04-03 03:25:00",10.4,9.8,2.0,0.0,0,996.9,2,6,"",96
"2024-04-03 03:26:00",10.4,9.8,2.0,0.0,0,996.9,2,3,"",96
"2024-04-03 03:27:00",10.4,9.8,2.0,0.0,0,996.9,2,4,"",96
"2024-04-03 03:28:00",10.4,9.8,2.0,0.0,0,996.9,3,8,"",96
"2024-04-03 03:29:00",10.4,9.8,2.0,0.0,0,996.9,3,5,"",96
"2024-04-03 03:30:00",10.4,9.8,2.0,0.0,0,996.9,2,5,"",96
"2024-04-03 03:31:00",10.4,9.8,2.0,0.0,0,996.9,2,4,"",96
"2024-04-03 03:32:00",10.4,9.8,2.0,0.0,0,996.9,1,2,"",96
"2024-04-03 03:33:00",10.4,9.8,2.0,0.0,0,996.8,2,5,"",96
"2024-04-03 03:34:00",10.4,9.8,2.0,0.0,0,996.9,3,4,"",96
"2024-04-03 03:35:00",10.4,9.8,2.0,0.0,0,996.9,1,2,"",96
"2024-04-03 03:36:00",10.4,9.8,2.0,0.0,0,996.9,2,4,"",96
"2024-04-03 03:37:00",10.4,9.8,2.0,0.0,0,996.9,2,3,"",96
"2024-04-03 03:38:00",10.4,9.8,2.0,0.0,0,996.9,2,3,"",96
"2024-04-03 03:39:00",10.4,9.8,2.0,0.0,0,996.9,2,3,"",96
"2024-04-03 03:40:00",10.5,9.9,2.0,0.0,0,996.9,2,3,"",96
"2024-04-03 03:41:00",10.5,9.9,2.0,0.0,0,996.9,3,5,"",96
"2024-04-03 03:42:00",10.4,9.8,2.0,0.0,0,996.9,2,2,"",96
"2024-04-03 03:43:00",10.5,9.9,2.0,0.0,0,996.9,1,3,"",96
"2024-04-03 03:44:00",10.5,9.9,2.0,0.0,0,996.9,3,5,"",96
"2024-04-03 03:45:00",10.5,9.9,2.0,0.0,0,996.9,2,5,"",96
"2024-04-03 03:46:00",10.5,9.9,2.0,0.0,0,996.8,1,2,"",96
"2024-04-03 03:47:00",10.5,9.9,2.0,0.0,0,996.8,1,2,"",96
"2024-04-03 03:48:00",10.5,9.9,2.0,0.0,0,996.8,2,4,"",96
"2024-04-03 03:49:00",10.6,10.0,2.0,0.0,0,996.8,2,5,"",96
"2024-04-03 03:50:00",10.6,10.0,2.0,0.0,0,996.9,1,2,"",96
"2024-04-03 03:51:00",10.5,9.9,2.0,0.0,0,996.8,2,4,"",96
"2024-04-03 03:52:00",10.5,9.9,2.0,0.0,0,996.8,1,3,"",96
"2024-04-03 03:53:00",10.6,10.0,2.0,0.0,0,996.8,1,2,"",96
"2024-04-03 03:54:00",10.6,10.0,2.0,0.0,0,996.8,1,2,"",96
"2024-04-03 03:55:00",10.6,10.0,2.0,0.0,0,996.8,1,2,"",96
"2024-04-03 03:56:00",10.6,10.0,2.0,0.0,0,996.7,1,2,"",96
"2024-04-03 03:57:00",10.5,9.9,2.0,0.0,0,996.7,1,2,"",96
"2024-04-03 03:58:00",10.6,10.0,2.0,0.0,0,996.7,1,3,"",96
"2024-04-03 03:59:00",10.6,10.0,2.0,0.0,0,996.8,1,2,"",96
"2024-04-03 04:00:00",10.6,10.0,2.0,0.0,0,996.8,1,4,"",96
"2024-04-03 04:01:00",10.6,10.0,2.0,0.0,0,996.7,4,8,"",96
"2024-04-03 04:02:00",10.6,10.0,2.0,0.0,0,996.7,2,5,"",96
"2024-04-03 04:03:00",10.6,10.0,2.0,0.0,0,996.7,3,6,"",96
"2024-04-03 04:04:00",10.6,10.0,2.0,0.0,0,996.7,2,3,"",96
"2024-04-03 04:05:00",10.6,10.0,2.0,0.0,0,996.7,2,3,"",96
"2024-04-03 04:06:00",10.6,10.0,2.0,0.0,0,996.7,2,5,"",96
"2024-04-03 04:07:00",10.6,10.0,2.0,0.0,0,996.7,3,6,"",96
"2024-04-03 04:08:00",10.6,10.0,2.0,0.0,0,996.7,2,4,"",96
"2024-04-03 04:09:00",10.6,10.0,2.0,0.0,0,996.7,1,2,"",96
"2024-04-03 04:10:00",10.6,10.0,2.0,0.0,0,996.7,1,3,"",96
"2024-04-03 04:11:00",10.6,10.0,2.2,0.0,0,996.7,2,5,"",96
"2024-04-03 04:12:00",10.6,10.0,2.2,0.0,0,996.7,3,5,"",96
"2024-04-03 04:13:00",10.6,10.0,2.2,0.0,0,996.7,1,2,"",96
"2024-04-03 04:14:00",10.6,10.0,2.2,0.0,0,996.7,1,2,"",96
"2024-04-03 04:15:00",10.6,10.0,2.2,0.0,0,996.7,1,2,"",96
"2024-04-03 04:16:00",10.6,10.0,2.2,0.0,0,996.7,2,4,"",96
"2024-04-03 04:17:00",10.6,10.0,2.2,0.0,0,996.7,2,3,"",96
"2024-04-03 04:18:00",10.6,10.0,2.2,0.0,0,996.6,1,2,"",96
"2024-04-03 04:19:00",10.6,10.0,2.2,0.0,0,996.6,1,2,"",96
"2024-04-03 04:20:00",10.6,10.0,2.2,0.0,0,996.6,1,3,"",96
"2024-04-03 04:21:00",10.6,10.0,2.2,0.0,0,996.6,2,3,"",96
"2024-04-03 04:22:00",10.6,10.0,2.2,0.0,0,996.5,3,4,"",96
"2024-04-03 04:23:00",10.6,10.0,2.2,0.0,0,996.6,1,3,"",96
"2024-04-03 04:24:00",10.6,10.0,2.2,0.0,0,996.6,2,6,"",96
"2024-04-03 04:25:00",10.6,10.0,2.2,0.0,0,996.6,3,5,"",96
"2024-04-03 04:26:00",10.7,10.1,2.2,0.0,0,996.6,2,3,"",96
"2024-04-03 04:27:00",10.6,10.0,2.2,0.0,0,996.6,2,4,"",96
"2024-04-03 04:28:00",10.7,10.1,2.2,0.0,0,996.6,2,5,"",96
"2024-04-03 04:29:00",10.6,10.0,2.2,0.0,0,996.6,3,6,"",96
"2024-04-03 04:30:00",10.7,10.1,2.2,0.0,0,996.5,4,8,"",96
"2024-04-03 04:31:00",10.6,10.0,2.2,0.0,0,996.6,2,4,"",96
"2024-04-03 04:32:00",10.6,10.0,2.2,0.0,0,996.5,1,2,"",96
"2024-04-03 04:33:00",10.7,10.1,2.2,0.0,0,996.5,1,2,"",96
"2024-04-03 04:34:00",10.7,10.1,2.2,0.0,0,996.5,1,2,"",96
"2024-04-03 04:35:00",10.7,10.1,2.2,0.0,0,996.4,2,3,"",96
"2024-04-03 04:36:00",10.7,10.1,2.2,0.0,0,996.5,1,2,"",96
"2024-04-03 04:37:00",10.7,10.1,2.2,0.0,0,996.5,1,2,"",96
"2024-04-03 04:38:00",10.6,10.0,2.2,0.0,0,996.5,2,4,"",96
"2024-04-03 04:39:00",10.6,10.0,2.2,0.0,0,996.4,1,1,"",96
"2024-04-03 04:40:00",10.7,10.1,2.2,0.0,0,996.4,0,1,"",96
"2024-04-03 04:41:00",10.7,10.1,2.2,0.0,0,996.4,2,6,"",96
"2024-04-03 04:42:00",10.7,10.1,2.2,0.0,0,996.4,2,5,"",96
"2024-04-03 04:43:00",10.6,10.0,2.2,0.0,0,996.4,2,3,"",96
"2024-04-03 04:44:00",10.6,10.0,2.2,0.0,0,996.4,1,3,"",96
"2024-04-03 04:45:00",10.7,10.1,2.2,0.0,0,996.4,2,5,"",96
"2024-04-03 04:46:00",10.7,10.1,2.2,0.0,0,996.3,1,3,"",96
"2024-04-03 04:47:00",10.7,10.1,2.2,0.0,0,996.3,2,4,"",96
"2024-04-03 04:48:00",10.6,10.0,2.2,0.0,0,996.3,1,2,"",96
"2024-04-03 04:49:00",10.7,10.1,2.2,0.0,0,996.3,3,5,"",96
"2024-04-03 04:50:00",10.7,10.1,2.2,0.0,0,996.3,1,2,"",96
"2024-04-03 04:51:00",10.7,10.1,2.2,0.0,0,996.3,3,4,"",96
"2024-04-03 04:52:00",10.7,10.1,2.2,0.0,0,996.3,2,3,"",96
"2024-04-03 04:53:00",10.7,10.1,2.2,0.0,0,996.2,2,2,"",96
"2024-04-03 04:54:00",10.7,10.1,2.2,0.0,0,996.2,4,6,"",96
"2024-04-03 04:55:00",10.7,10.1,2.2,0.0,0,996.3,1,2,"",96
"2024-04-03 04:56:00",10.7,10.1,2.2,0.0,0,996.2,1,3,"",96
"2024-04-03 04:57:00",10.7,10.1,2.4,0.0,0,996.2,1,2,"",96
"2024-04-03 04:58:00",10.7,10.1,2.4,0.0,0,996.2,2,4,"",96
"2024-04-03 04:59:00",10.7,10.1,2.4,0.0,0,996.3,2,5,"",96
"2024-04-03 05:00:00",10.7,10.1,2.4,0.0,0,996.2,1,2,"",96
"2024-04-03 05:01:00",10.8,10.2,2.4,0.0,0,996.2,1,2,"",96
"2024-04-03 05:02:00",10.7,10.1,2.4,0.0,0,996.2,1,2,"",96
"2024-04-03 05:03:00",10.8,10.2,2.4,0.0,0,996.2,2,3,"",96
"2024-04-03 05:04:00",10.8,10.2,2.4,0.0,0,996.2,1,2,"",96
"2024-04-03 05:05:00",10.7,10.1,2.4,0.0,0,996.1,2,3,"",96
"2024-04-03 05:06:00",10.7,10.1,2.4,0.0,0,996.0,1,3,"",96
"2024-04-03 05:07:00",10.7,10.1,2.4,0.0,0,996.0,2,4,"",96
"2024-04-03 05:08:00",10.7,10.1,2.4,0.0,0,995.9,2,4,"",96
"2024-04-03 05:09:00",10.7,10.1,2.4,0.0,0,995.9,2,4,"",96
"2024-04-03 05:10:00",10.8,10.2,2.4,0.0,0,995.9,2,3,"",96
"2024-04-03 05:11:00",10.8,10.2,2.4,0.0,0,995.9,3,5,"",96
"2024-04-03 05:12:00",10.8,10.2,2.4,0.0,0,995.9,1,2,"",96
"2024-04-03 05:13:00",10.8,10.2,2.4,0.0,0,995.9,0,1,"",96
"2024-04-03 05:14:00",10.8,10.2,2.4,0.0,0,995.9,1,2,"",96
"2024-04-03 05:15:00",10.8,10.2,2.4,0.0,0,995.9,1,2,"",96
"2024-04-03 05:16:00",10.8,10.2,2.4,0.0,0,995.9,1,2,"",96
"2024-04-03 05:17:00",10.8,10.2,2.4,0.0,0,996.0,1,2,"",96
"2024-04-03 05:18:00",10.8,10.2,2.4,0.0,0,996.1,3,3,"",96
"2024-04-03 05:19:00",10.8,10.2,2.4,0.0,0,996.1,2,4,"",96
"2024-04-03 05:20:00",10.8,10.2,2.6,0.0,0,996.1,2,4,"",96
"2024-04-03 05:21:00",10.8,10.2,2.6,0.0,0,996.2,2,4,"",96
"2024-04-03 05:22:00",10.8,10.2,2.6,0.0,0,996.2,2,3,"",96
"2024-04-03 05:23:00",10.8,10.2,2.6,0.0,0,996.1,1,2,"",96
"2024-04-03 05:24:00",10.8,10.2,2.6,0.0,0,996.1,1,2,"",96
"2024-04-03 05:25:00",10.8,10.2,2.6,0.0,0,996.1,1,2,"",96
"2024-04-03 05:26:00",10.8,10.2,2.6,0.0,0,996.1,1,2,"",96
"2024-04-03 05:27:00",10.8,10.2,2.6,0.0,0,996.1,2,6,"",96
"2024-04-03 05:28:00",10.8,10.2,2.6,0.0,0,996.1,1,2,"",96
"2024-04-03 05:29:00",10.8,10.2,2.6,0.0,0,996.1,3,5,"",96
"2024-04-03 05:30:00",10.8,10.2,2.6,0.0,0,996.1,1,2,"",96
"2024-04-03 05:31:00",10.8,10.2,2.6,0.0,0,996.1,1,1,"",96
"2024-04-03 05:32:00",10.8,10.2,2.6,0.0,0,996.0,1,2,"",96
"2024-04-03 05:33:00",10.8,10.2,2.6,0.0,0,996.1,1,2,"",96
"2024-04-03 05:34:00",10.8,10.2,2.6,0.0,0,996.0,1,1,"",96
"2024-04-03 05:35:00",10.8,10.2,2.6,0.0,0,996.1,1,4,"",96
"2024-04-03 05:36:00",10.8,10.2,2.6,0.0,0,996.1,1,2,"",96
"2024-04-03 05:37:00",10.8,10.2,2.6,0.0,0,996.1,2,3,"",96
"2024-04-03 05:38:00",10.8,10.2,2.6,0.0,0,996.1,1,2,"",96
"2024-04-03 05:39:00",10.8,10.2,2.6,0.0,0,996.1,1,2,"",96
"2024-04-03 05:40:00",10.8,10.2,2.6,0.0,0,996.1,1,2,"",96
"2024-04-03 05:41:00",10.8,10.2,2.6,0.0,0,996.1,0,1,"",96
"2024-04-03 05:42:00",10.8,10.2,2.6,0.0,0,996.2,1,1,"",96
"2024-04-03 05:43:00",10.8,10.2,2.6,0.0,0,996.1,1,2,"",96
"2024-04-03 05:44:00",10.8,10.2,2.6,0.0,0,996.1,1,3,"",96
"2024-04-03 05:45:00",10.8,10.2,2.6,0.0,0,996.1,1,2,"",96
"2024-04-03 05:46:00",10.8,10.2,2.6,0.0,0,996.0,1,2,"",96
"2024-04-03 05:47:00",10.8,10.2,2.6,0.0,0,996.0,2,7,"",96
"2024-04-03 05:48:00",10.8,10.2,2.6,0.0,0,996.0,4,9,"",96
"2024-04-03 05:49:00",10.9,10.3,2.6,0.0,0,996.0,2,3,"",96
"2024-04-03 05:50:00",10.9,10.3,2.6,0.0,0,996.0,2,3,"",96
"2024-04-03 05:51:00",10.9,10.3,2.6,0.0,0,996.0,2,3,"",96
"2024-04-03 05:52:00",10.9,10.3,2.6,0.0,0,995.9,1,2,"",96
"2024-04-03 05:53:00",10.9,10.3,2.6,0.0,0,995.9,1,2,"",96
"2024-04-03 05:54:00",10.9,10.3,2.6,0.0,0,995.9,1,3,"",96
"2024-04-03 05:55:00",10.9,10.3,2.6,0.0,0,995.9,2,4,"",96
"2024-04-03 05:56:00",10.9,10.3,2.6,0.0,0,996.0,2,4,"",96
"2024-04-03 05:57:00",10.9,10.3,2.6,0.0,0,996.0,2,3,"",96
"2024-04-03 05:58:00",10.9,10.3,2.6,0.0,0,996.0,2,3,"",96
"2024-04-03 05:59:00",10.9,10.3,2.6,0.0,0,995.9,1,2,"",96
"2024-04-03 06:00:00",10.9,10.3,2.6,0.0,0,995.9,1,3,"",96
"2024-04-03 06:01:00",10.9,10.3,2.6,0.0,0,995.9,2,3,"",96
"2024-04-03 06:02:00",10.9,10.3,2.6,0.0,0,995.9,1,2,"",96
"2024-04-03 06:03:00",10.9,10.3,2.6,0.0,0,995.9,2,3,"",96
"2024-04-03 06:04:00",10.9,10.3,2.6,0.0,0,995.9,2,4,"",96
"2024-04-03 06:05:00",10.9,10.3,2.6,0.0,0,995.9,4,6,"",96
"2024-04-03 06:06:00",10.9,10.3,2.6,0.0,0,995.9,1,3,"",96
"2024-04-03 06:07:00",10.9,10.3,2.6,0.0,0,995.8,2,3,"",96
"2024-04-03 06:08:00",10.9,10.3,2.6,0.0,0,995.8,2,3,"",96
"2024-04-03 06:09:00",11.0,10.4,2.6,0.0,0,995.8,1,3,"",96
"2024-04-03 06:10:00",11.0,10.4,2.6,0.0,0,995.8,2,5,"",96
"2024-04-03 06:11:00",11.0,10.4,2.6,0.0,0,995.8,3,8,"",96
"2024-04-03 06:12:00",10.9,10.3,2.6,0.0,0,995.8,3,4,"",96
"2024-04-03 06:13:00",11.0,10.4,2.6,0.0,0,995.8,2,3,"",96
"2024-04-03 06:14:00",11.0,10.4,2.6,0.0,0,995.8,2,4,"",96
"2024-04-03 06:15:00",11.0,10.4,2.6,0.0,0,995.8,3,7,"",96
"2024-04-03 06:16:00",11.0,10.4,2.6,0.0,0,995.8,2,3,"",96
"2024-04-03 06:17:00",11.0,10.4,2.6,0.0,0,995.8,1,3,"",96
"2024-04-03 06:18:00",11.1,10.5,2.6,0.0,0,995.8,3,7,"",96
"2024-04-03 06:19:00",11.1,10.5,2.6,0.0,0,995.8,3,5,"",96
"2024-04-03 06:20:00",11.0,10.4,2.6,0.0,0,995.8,1,2,"",96
"2024-04-03 06:21:00",11.1,10.5,2.6,0.0,0,995.8,1,2,"",96
"2024-04-03 06:22:00",11.0,10.4,2.6,0.0,0,995.8,2,3,"",96
"2024-04-03 06:23:00",11.0,10.4,2.6,0.0,0,995.7,2,3,"",96
"2024-04-03 06:24:00",11.1,10.5,2.6,0.0,0,995.7,1,3,"",96
"2024-04-03 06:25:00",11.0,10.4,2.8,0.0,0,995.7,3,7,"",96
"2024-04-03 06:26:00",11.1,10.5,2.8,0.0,0,995.7,4,6,"",96
"2024-04-03 06:27:00",11.0,10.4,2.8,0.0,0,995.6,2,4,"",96
"2024-04-03 06:28:00",11.1,10.5,2.8,0.0,0,995.6,3,5,"",96
"2024-04-03 06:29:00",11.1,10.5,2.8,0.0,0,995.7,1,2,"",96
"2024-04-03 06:30:00",11.0,10.4,2.8,0.0,0,995.7,2,4,"",96
"2024-04-03 06:31:00",11.0,10.4,2.8,0.0,0,995.6,3,6,"",96
"2024-04-03 06:32:00",11.1,10.5,2.8,0.0,0,995.6,2,4,"",96
"2024-04-03 06:33:00",11.1,10.5,2.8,0.0,0,995.7,2,3,"",96
"2024-04-03 06:34:00",11.1,10.5,2.8,0.0,0,995.7,3,7,"",96
"2024-04-03 06:35:00",11.1,10.5,2.8,0.0,0,995.6,3,6,"",96
"2024-04-03 06:36:00",11.1,10.5,2.8,0.0,0,995.7,3,7,"",96
"2024-04-03 06:37:00",11.1,10.5,2.8,0.0,0,995.6,2,4,"",96
"2024-04-03 06:38:00",11.1,10.5,2.8,0.0,0,995.6,2,4,"",96
"2024-04-03 06:39:00",11.1,10.5,2.8,0.0,0,995.6,3,5,"",96
"2024-04-03 06:40:00",11.1,10.5,2.8,0.0,0,995.6,3,5,"",96
"2024-04-03 06:41:00",11.1,10.5,2.8,0.0,0,995.6,4,6,"",96
"2024-04-03 06:42:00",11.1,10.5,2.8,0.0,0,995.6,2,5,"",96
"2024-04-03 06:43:00",11.1,10.5,2.8,0.0,0,995.6,2,4,"",96
"2024-04-03 06:44:00",11.1,10.5,2.8,0.0,0,995.6,3,6,"",96
"2024-04-03 06:45:00",11.1,10.5,2.8,0.0,0,995.6,2,4,"",96
"2024-04-03 06:46:00",11.1,10.5,2.8,0.0,0,995.6,2,5,"",96
"2024-04-03 06:47:00",11.1,10.5,2.8,0.0,0,995.6,1,3,"",96
"2024-04-03 06:48:00",11.1,10.5,2.8,0.0,5,995.5,0,3,"",96
"2024-04-03 06:49:00",11.1,10.5,2.8,0.0,5,995.5,2,3,"",96
"2024-04-03 06:50:00",11.1,10.5,2.8,0.0,0,995.5,2,4,"",96
"2024-04-03 06:51:00",11.1,10.5,2.8,0.0,0,995.5,1,2,"",96
"2024-04-03 06:52:00",11.1,10.5,2.8,0.0,0,995.5,0,2,"",96
"2024-04-03 06:53:00",11.1,10.5,2.8,0.0,0,995.5,4,7,"",96
"2024-04-03 06:54:00",11.1,10.5,2.8,0.0,0,995.5,2,3,"",96
"2024-04-03 06:55:00",11.1,10.5,2.8,0.0,0,995.4,3,5,"",96